Skip Page Navigation
NASA JPL Caltech
NASA Logo - Jet Propulsion Laboratory + View the NASA Portal
+ Center for Near-Earth Object Studies
JPL Home Earth Solar System Stars & Galaxies Technology
JPL Solar System Dynamics
BODIES ORBITS EPHEMERIDES TOOLS PHYSICAL DATA DISCOVERY FAQ SITE MAP
JPL Small-Body Database Browser
Search: [ help ]  
382646 (2002 RN175)
Classification: Main-belt Asteroid          SPK-ID: 2382646
Ephemeris | Orbit Diagram | Orbital Elements | Mission Design | Physical Parameters | Discovery Circumstances ]

[ show orbit diagram ]
Orbital Elements at Epoch 2459000.5 (2020-May-31.0) TDB
Reference: JPL 13 (heliocentric ecliptic J2000)
 Element Value Uncertainty (1-sigma)   Units 
e .2394934258594475 9.0646e-08  
a 2.296895661294184 1.0834e-08 au
q 1.746804250529138 2.0538e-07 au
i 5.232957608198832 8.2339e-06 deg
node 230.183278651179 6.6162e-05 deg
peri 165.0219348795011 6.8523e-05 deg
M 4.836468450759785 1.3841e-05 deg
tp 2458983.418099558927
(2020-May-13.91809956)
4.8885e-05 TDB
period 1271.482326700611
3.48
8.9962e-06
2.463e-08
d
yr
n .2831340966682325 2.0033e-09 deg/d
Q 2.846987072059229 1.3429e-08 au
  Orbit Determination Parameters
   # obs. used (total)      260  
   data-arc span      5262 days (14.41 yr)  
   first obs. used      2002-08-28  
   last obs. used      2017-01-23  
   planetary ephem.      DE431  
   SB-pert. ephem.      SB431-N16  
   condition code      0  
   norm. resid. RMS      .55711  
   source      ORB  
   producer      Otto Matic  
   solution date      2020-Nov-12 17:41:06  

Additional Information
 Earth MOID = .75442 au 
 Jupiter MOID = 2.58625 au 
 T_jup = 3.550 
[ show covariance matrix ]

Ephemeris | Orbit Diagram | Orbital Elements | Mission Design | Physical Parameters | Discovery Circumstances ]

Physical Parameter Table
Parameter Symbol Value Units Sigma Reference Notes
absolute magnitude H 17.4   n/a MPO397381  

382646 (2002 RN175)          Discovered 2002-Sep-13 by NEAT at Palomar
Reference: Last Updated: 2014-01-21
Ephemeris | Orbit Diagram | Orbital Elements | Mission Design | Physical Parameters | Discovery Circumstances ]
ABOUT SSD CREDITS/AWARDS PRIVACY/COPYRIGHT GLOSSARY LINKS
FirstGov 2020-Nov-28 00:18 UT
(server date/time)  
NASA Home Page
Site Manager:   Ryan S. Park
Webmaster  Alan B. Chamberlin